QPF
0.00 0.00 0.00 0.00 0.01 0.01 0.01 0.01 0.01 0.02 0.02 0.02 0.02 0.03 0.04 0.03 0.03 0.03 0.02 0.03 0.03 0.03 0.03 0.02 0.03 0.05 0.05 0.05 0.05 0.06 0.06 0.06 0.05 0.05 0.05 0.04 0.05 0.05 0.04 0.05 0.09 0.10 0.12
0.00 0.00 0.00 0.00 0.00 0.00 0.00 0.00 0.01 0.00 0.00 0.01 0.02 0.03 0.04 0.05 0.05 0.04 0.04 0.05 0.04 0.05 0.05 0.06 0.07 0.08 0.06 0.04 0.05 0.05 0.05 0.05 0.07 0.05 0.05 0.04 0.04 0.06 0.05 0.05 0.08 0.12 0.11
0.00 0.00 0.00 0.00 0.00 0.00 0.00 0.00 0.01 0.01 0.00 0.01 0.02 0.03 0.04 0.05 0.05 0.05 0.06 0.05 0.05 0.06 0.07 0.10 0.12 0.09 0.06 0.05 0.05 0.04 0.04 0.03 0.05 0.05 0.04 0.03 0.04 0.04 0.05 0.04 0.05 0.07 0.06
0.00 0.00 0.00 0.00 0.00 0.00 0.00 0.00 0.01 0.01 0.01 0.00 0.01 0.02 0.04 0.04 0.06 0.07 0.06 0.03 0.03 0.05 0.05 0.05 0.05 0.05 0.06 0.05 0.04 0.04 0.04 0.04 0.04 0.04 0.04 0.04 0.04 0.05 0.03 0.04 0.04 0.07 0.07
0.01 0.01 0.01 0.01 0.01 0.00 0.00 0.00 0.00 0.01 0.01 0.01 0.01 0.01 0.02 0.03 0.04 0.06 0.04 0.03 0.02 0.02 0.03 0.03 0.04 0.04 0.05 0.04 0.04 0.04 0.03 0.03 0.04 0.04 0.04 0.05 0.05 0.05 0.04 0.04 0.04 0.06 0.05
0.01 0.01 0.01 0.01 0.01 0.01 0.00 0.00 0.01 0.01 0.01 0.01 0.01 0.01 0.01 0.02 0.03 0.04 0.02 0.02 0.02 0.01 0.02 0.03 0.02 0.03 0.04 0.04 0.05 0.06 0.05 0.05 0.06 0.06 0.06 0.06 0.06 0.05 0.05 0.04 0.04 0.04 0.04
0.01 0.01 0.01 0.01 0.01 0.01 0.01 0.00 0.01 0.01 0.01 0.01 0.01 0.01 0.00 0.01 0.01 0.01 0.01 0.01 0.01 0.01 0.01 0.02 0.01 0.02 0.02 0.03 0.05 0.08 0.09 0.09 0.08 0.06 0.04 0.03 0.04 0.08 0.09 0.08 0.06 0.04 0.03
0.02 0.02 0.02 0.01 0.01 0.02 0.02 0.01 0.01 0.01 0.01 0.00 0.01 0.00 0.00 0.00 0.00 0.00 0.00 0.00 0.01 0.01 0.01 0.01 0.01 0.02 0.04 0.04 0.04 0.03 0.06 0.08 0.08 0.06 0.04 0.03 0.02 0.04 0.06 0.09 0.09 0.07 0.05
0.07 0.03 0.03 0.02 0.02 0.03 0.02 0.02 0.02 0.01 0.01 0.00 0.00 0.00 0.00 0.00 0.00 0.00 0.00 0.01 0.01 0.01 0.01 0.02 0.02 0.02 0.04 0.04 0.04 0.04 0.04 0.04 0.04 0.03 0.03 0.02 0.02 0.02 0.03 0.06 0.07 0.06 0.05
0.05 0.03 0.03 0.03 0.03 0.02 0.02 0.02 0.03 0.03 0.02 0.01 0.01 0.00 0.00 0.01 0.01 0.01 0.01 0.01 0.01 0.01 0.02 0.02 0.02 0.02 0.02 0.02 0.02 0.02 0.02 0.02 0.01 0.01 0.02 0.03 0.02 0.01 0.02 0.05 0.07 0.06 0.05
0.04 0.04 0.08 0.06 0.04 0.03 0.03 0.04 0.04 0.04 0.04 0.03 0.02 0.01 0.01 0.01 0.01 0.01 0.00 0.01 0.01 0.01 0.01 0.01 0.01 0.01 0.01 0.02 0.01 0.01 0.01 0.01 0.01 0.01 0.02 0.02 0.02 0.02 0.02 0.04 0.04 0.04 0.05
0.02 0.02 0.04 0.07 0.09 0.05 0.05 0.04 0.05 0.05 0.04 0.03 0.02 0.02 0.02 0.02 0.01 0.01 0.01 0.01 0.01 0.01 0.01 0.01 0.01 0.01 0.01 0.01 0.01 0.02 0.01 0.01 0.01 0.01 0.01 0.01 0.02 0.03 0.03 0.03 0.02 0.03 0.03
0.01 0.01 0.01 0.02 0.03 0.03 0.07 0.04 0.04 0.05 0.04 0.03 0.02 0.02 0.03 0.03 0.03 0.02 0.02 0.02 0.01 0.01 0.01 0.00 0.00 0.01 0.01 0.01 0.01 0.01 0.02 0.01 0.01 0.01 0.01 0.01 0.02 0.02 0.02 0.01 0.02 0.02 0.02
0.00 0.00 0.00 0.01 0.01 0.01 0.01 0.01 0.01 0.02 0.03 0.06 0.07 0.06 0.04 0.05 0.05 0.04 0.04 0.04 0.02 0.02 0.01 0.01 0.01 0.01 0.01 0.01 0.01 0.02 0.02 0.01 0.01 0.01 0.01 0.02 0.02 0.01 0.01 0.01 0.01 0.02 0.02
0.01 0.01 0.01 0.01 0.01 0.01 0.02 0.01 0.01 0.02 0.02 0.03 0.05 0.08 0.09 0.06 0.05 0.04 0.04 0.05 0.03 0.02 0.01 0.01 0.02 0.01 0.01 0.01 0.01 0.02 0.01 0.01 0.01 0.01 0.01 0.01 0.01 0.01 0.01 0.01 0.01 0.01 0.01
0.02 0.01 0.01 0.01 0.01 0.02 0.03 0.02 0.01 0.02 0.02 0.03 0.04 0.06 0.07 0.06 0.05 0.03 0.03 0.03 0.02 0.01 0.01 0.01 0.01 0.01 0.01 0.01 0.02 0.02 0.02 0.01 0.01 0.01 0.01 0.01 0.02 0.01 0.01 0.01 0.01 0.01 0.01
0.02 0.02 0.01 0.01 0.01 0.02 0.02 0.02 0.02 0.02 0.03 0.04 0.06 0.08 0.08 0.05 0.03 0.03 0.02 0.02 0.01 0.01 0.01 0.01 0.01 0.02 0.01 0.02 0.02 0.02 0.02 0.01 0.01 0.01 0.01 0.01 0.01 0.01 0.01 0.01 0.01 0.01 0.00
0.02 0.02 0.02 0.01 0.01 0.01 0.01 0.02 0.02 0.03 0.04 0.04 0.05 0.05 0.05 0.03 0.02 0.02 0.03 0.03 0.03 0.02 0.01 0.01 0.02 0.02 0.02 0.04 0.04 0.04 0.04 0.03 0.03 0.03 0.03 0.02 0.01 0.01 0.01 0.00 0.00 0.00 0.00
0.03 0.02 0.02 0.02 0.02 0.01 0.01 0.01 0.02 0.03 0.03 0.03 0.04 0.03 0.04 0.04 0.03 0.02 0.03 0.03 0.04 0.04 0.04 0.03 0.04 0.03 0.03 0.04 0.06 0.08 0.09 0.07 0.05 0.03 0.02 0.02 0.01 0.01 0.01 0.01 0.00 0.00 0.00
0.03 0.02 0.02 0.02 0.02 0.02 0.01 0.01 0.01 0.02 0.02 0.03 0.03 0.03 0.03 0.04 0.04 0.04 0.04 0.04 0.05 0.05 0.05 0.04 0.04 0.05 0.05 0.06 0.06 0.07 0.06 0.06 0.05 0.03 0.02 0.02 0.01 0.01 0.01 0.01 0.01 0.01 0.01
0.04 0.04 0.03 0.03 0.03 0.03 0.02 0.01 0.02 0.02 0.03 0.04 0.04 0.04 0.04 0.04 0.03 0.03 0.03 0.03 0.04 0.03 0.03 0.02 0.02 0.03 0.04 0.05 0.05 0.05 0.03 0.03 0.03 0.03 0.02 0.01 0.02 0.02 0.02 0.02 0.02 0.02 0.02
0.03 0.05 0.05 0.05 0.05 0.05 0.03 0.02 0.01 0.02 0.02 0.03 0.04 0.04 0.04 0.05 0.05 0.03 0.02 0.02 0.02 0.02 0.02 0.02 0.02 0.02 0.02 0.02 0.03 0.04 0.04 0.03 0.02 0.02 0.02 0.02 0.02 0.01 0.02 0.04 0.05 0.05 0.05
0.05 0.05 0.06 0.07 0.07 0.06 0.05 0.04 0.03 0.02 0.02 0.02 0.02 0.03 0.03 0.03 0.04 0.03 0.02 0.01 0.01 0.01 0.01 0.02 0.02 0.02 0.02 0.03 0.04 0.04 0.04 0.04 0.03 0.03 0.03 0.03 0.02 0.02 0.02 0.03 0.03 0.03 0.03
0.04 0.06 0.08 0.07 0.05 0.04 0.05 0.07 0.06 0.03 0.02 0.02 0.03 0.03 0.04 0.03 0.04 0.03 0.03 0.02 0.02 0.01 0.01 0.01 0.02 0.02 0.03 0.03 0.04 0.03 0.04 0.05 0.04 0.04 0.05 0.05 0.03 0.03 0.02 0.03 0.02 0.02 0.02
0.03 0.03 0.05 0.08 0.10 0.10 0.08 0.06 0.06 0.04 0.02 0.02 0.02 0.02 0.04 0.04 0.05 0.05 0.04 0.04 0.03 0.02 0.02 0.02 0.03 0.03 0.02 0.03 0.04 0.04 0.05 0.05 0.05 0.06 0.06 0.06 0.04 0.03 0.02 0.02 0.02 0.03 0.03
0.02 0.03 0.04 0.07 0.10 0.12 0.10 0.07 0.05 0.04 0.04 0.03 0.03 0.04 0.08 0.07 0.05 0.05 0.06 0.06 0.05 0.04 0.04 0.04 0.04 0.03 0.03 0.03 0.04 0.05 0.06 0.07 0.10 0.11 0.09 0.08 0.06 0.03 0.03 0.03 0.02 0.02 0.02
MSLP
1014.54 1014.65 1014.73 1014.77 1014.78 1014.79 1014.84 1014.95 1015.13 1015.39 1015.69 1016.02 1016.33 1016.59 1016.80 1016.93 1017.01 1017.05 1017.10 1017.17 1017.29 1017.46 1017.67 1017.91 1018.14 1018.37 1018.56 1018.71 1018.83 1018.91 1018.97 1019.02 1019.04 1019.03 1018.98 1018.89 1018.73 1018.53 1018.27 1018.00 1017.73 1017.49 1017.32
1014.90 1015.12 1015.27 1015.33 1015.34 1015.31 1015.30 1015.35 1015.49 1015.73 1016.04 1016.39 1016.73 1017.01 1017.22 1017.33 1017.36 1017.33 1017.31 1017.31 1017.37 1017.50 1017.70 1017.95 1018.20 1018.44 1018.65 1018.80 1018.91 1018.99 1019.04 1019.08 1019.12 1019.15 1019.14 1019.10 1018.98 1018.80 1018.53 1018.22 1017.87 1017.53 1017.22
1015.01 1015.36 1015.61 1015.74 1015.75 1015.70 1015.65 1015.64 1015.73 1015.94 1016.24 1016.60 1016.96 1017.27 1017.48 1017.59 1017.59 1017.53 1017.45 1017.41 1017.43 1017.53 1017.72 1017.96 1018.22 1018.46 1018.67 1018.81 1018.91 1018.97 1019.02 1019.07 1019.14 1019.21 1019.27 1019.29 1019.24 1019.10 1018.86 1018.52 1018.11 1017.67 1017.24
1014.85 1015.34 1015.72 1015.93 1015.99 1015.95 1015.86 1015.80 1015.84 1016.00 1016.28 1016.63 1017.00 1017.33 1017.57 1017.68 1017.69 1017.61 1017.51 1017.44 1017.43 1017.51 1017.68 1017.90 1018.15 1018.39 1018.58 1018.71 1018.79 1018.84 1018.88 1018.95 1019.05 1019.17 1019.30 1019.41 1019.43 1019.36 1019.15 1018.81 1018.36 1017.85 1017.32
1014.40 1015.05 1015.57 1015.90 1016.03 1016.01 1015.90 1015.81 1015.80 1015.91 1016.16 1016.49 1016.87 1017.21 1017.47 1017.61 1017.64 1017.57 1017.47 1017.38 1017.35 1017.41 1017.55 1017.75 1017.98 1018.19 1018.36 1018.47 1018.53 1018.57 1018.61 1018.69 1018.81 1018.99 1019.19 1019.37 1019.47 1019.47 1019.31 1019.00 1018.55 1018.00 1017.40
1013.70 1014.51 1015.17 1015.62 1015.84 1015.87 1015.77 1015.66 1015.61 1015.68 1015.89 1016.21 1016.59 1016.95 1017.24 1017.41 1017.46 1017.42 1017.32 1017.23 1017.18 1017.21 1017.32 1017.49 1017.69 1017.87 1018.01 1018.09 1018.14 1018.16 1018.20 1018.28 1018.43 1018.64 1018.89 1019.13 1019.30 1019.37 1019.28 1019.01 1018.59 1018.04 1017.41
1012.81 1013.75 1014.55 1015.13 1015.44 1015.53 1015.46 1015.34 1015.27 1015.32 1015.51 1015.81 1016.19 1016.57 1016.89 1017.11 1017.19 1017.18 1017.09 1017.00 1016.93 1016.93 1017.01 1017.13 1017.29 1017.44 1017.55 1017.62 1017.65 1017.66 1017.68 1017.77 1017.92 1018.14 1018.41 1018.68 1018.91 1019.03 1019.00 1018.81 1018.44 1017.93 1017.32
1011.82 1012.86 1013.78 1014.45 1014.85 1015.00 1014.98 1014.88 1014.81 1014.85 1015.03 1015.33 1015.73 1016.13 1016.49 1016.74 1016.86 1016.87 1016.80 1016.70 1016.62 1016.58 1016.61 1016.70 1016.82 1016.94 1017.04 1017.09 1017.10 1017.11 1017.12 1017.19 1017.32 1017.53 1017.79 1018.07 1018.31 1018.48 1018.51 1018.38 1018.09 1017.66 1017.12
1010.85 1011.95 1012.93 1013.68 1014.14 1014.34 1014.36 1014.28 1014.23 1014.28 1014.47 1014.79 1015.20 1015.64 1016.03 1016.32 1016.47 1016.51 1016.45 1016.34 1016.24 1016.18 1016.17 1016.23 1016.32 1016.42 1016.51 1016.56 1016.57 1016.57 1016.58 1016.62 1016.72 1016.88 1017.10 1017.35 1017.59 1017.76 1017.84 1017.78 1017.58 1017.25 1016.80
1010.01 1011.11 1012.10 1012.86 1013.35 1013.58 1013.63 1013.58 1013.56 1013.63 1013.83 1014.18 1014.61 1015.08 1015.50 1015.83 1016.01 1016.07 1016.02 1015.92 1015.80 1015.71 1015.69 1015.72 1015.81 1015.91 1016.01 1016.07 1016.11 1016.11 1016.11 1016.12 1016.17 1016.27 1016.43 1016.61 1016.81 1016.97 1017.07 1017.07 1016.96 1016.73 1016.39
1009.40 1010.44 1011.37 1012.09 1012.56 1012.78 1012.83 1012.80 1012.80 1012.89 1013.12 1013.48 1013.94 1014.43 1014.88 1015.23 1015.44 1015.52 1015.49 1015.39 1015.27 1015.19 1015.16 1015.20 1015.29 1015.42 1015.55 1015.65 1015.72 1015.74 1015.74 1015.72 1015.72 1015.75 1015.82 1015.92 1016.05 1016.17 1016.27 1016.30 1016.26 1016.13 1015.90
1009.05 1009.97 1010.79 1011.41 1011.81 1011.98 1012.01 1011.97 1011.97 1012.07 1012.31 1012.69 1013.16 1013.66 1014.12 1014.49 1014.73 1014.83 1014.82 1014.74 1014.64 1014.58 1014.57 1014.64 1014.78 1014.95 1015.13 1015.29 1015.39 1015.45 1015.45 1015.41 1015.35 1015.31 1015.29 1015.30 1015.35 1015.41 1015.48 1015.53 1015.53 1015.47 1015.34
1008.99 1009.74 1010.39 1010.86 1011.13 1011.22 1011.19 1011.12 1011.10 1011.19 1011.43 1011.80 1012.26 1012.75 1013.21 1013.59 1013.84 1013.97 1013.99 1013.96 1013.90 1013.88 1013.93 1014.05 1014.24 1014.47 1014.71 1014.92 1015.08 1015.17 1015.18 1015.13 1015.03 1014.92 1014.82 1014.74 1014.70 1014.70 1014.72 1014.76 1014.78 1014.77 1014.71
1009.18 1009.72 1010.16 1010.45 1010.56 1010.53 1010.41 1010.29 1010.23 1010.29 1010.50 1010.83 1011.27 1011.73 1012.18 1012.55 1012.82 1012.98 1013.05 1013.06 1013.07 1013.11 1013.22 1013.41 1013.66 1013.95 1014.25 1014.52 1014.73 1014.85 1014.87 1014.81 1014.69 1014.52 1014.35 1014.20 1014.08 1014.01 1013.98 1013.99 1014.02 1014.03 1014.01
1009.56 1009.87 1010.09 1010.17 1010.11 1009.95 1009.74 1009.54 1009.42 1009.44 1009.59 1009.87 1010.25 1010.68 1011.09 1011.46 1011.73 1011.92 1012.04 1012.12 1012.20 1012.31 1012.49 1012.73 1013.04 1013.39 1013.73 1014.04 1014.28 1014.42 1014.46 1014.40 1014.26 1014.06 1013.85 1013.64 1013.46 1013.33 1013.26 1013.24 1013.24 1013.26 1013.26
1010.05 1010.13 1010.13 1010.02 1009.81 1009.52 1009.21 1008.94 1008.76 1008.71 1008.80 1009.02 1009.33 1009.70 1010.07 1010.41 1010.69 1010.91 1011.08 1011.22 1011.37 1011.55 1011.79 1012.08 1012.43 1012.79 1013.15 1013.47 1013.72 1013.87 1013.92 1013.86 1013.71 1013.51 1013.28 1013.04 1012.83 1012.67 1012.56 1012.50 1012.48 1012.48 1012.48
1010.57 1010.46 1010.27 1010.00 1009.65 1009.26 1008.88 1008.54 1008.31 1008.20 1008.23 1008.37 1008.61 1008.92 1009.24 1009.55 1009.83 1010.07 1010.28 1010.48 1010.69 1010.92 1011.19 1011.50 1011.85 1012.21 1012.55 1012.85 1013.08 1013.22 1013.26 1013.21 1013.08 1012.88 1012.66 1012.43 1012.22 1012.04 1011.91 1011.82 1011.78 1011.75 1011.73
1011.05 1010.79 1010.46 1010.08 1009.65 1009.20 1008.78 1008.42 1008.15 1008.00 1007.97 1008.05 1008.22 1008.45 1008.72 1009.00 1009.27 1009.52 1009.76 1009.99 1010.22 1010.47 1010.75 1011.05 1011.37 1011.68 1011.97 1012.22 1012.41 1012.53 1012.56 1012.52 1012.41 1012.25 1012.06 1011.86 1011.66 1011.49 1011.36 1011.25 1011.17 1011.11 1011.06
1011.45 1011.09 1010.69 1010.25 1009.80 1009.35 1008.93 1008.57 1008.30 1008.13 1008.05 1008.08 1008.19 1008.36 1008.58 1008.81 1009.06 1009.31 1009.55 1009.78 1010.02 1010.26 1010.51 1010.76 1011.01 1011.25 1011.47 1011.65 1011.79 1011.87 1011.90 1011.87 1011.80 1011.69 1011.55 1011.39 1011.24 1011.09 1010.95 1010.83 1010.72 1010.61 1010.51
1011.74 1011.34 1010.92 1010.49 1010.07 1009.66 1009.29 1008.97 1008.72 1008.55 1008.46 1008.45 1008.51 1008.62 1008.78 1008.98 1009.19 1009.41 1009.62 1009.84 1010.05 1010.25 1010.44 1010.62 1010.79 1010.94 1011.07 1011.19 1011.27 1011.33 1011.36 1011.36 1011.33 1011.27 1011.19 1011.09 1010.97 1010.85 1010.71 1010.57 1010.42 1010.26 1010.09
1011.91 1011.53 1011.15 1010.78 1010.42 1010.09 1009.80 1009.55 1009.34 1009.19 1009.10 1009.06 1009.08 1009.15 1009.26 1009.40 1009.56 1009.73 1009.91 1010.07 1010.22 1010.36 1010.48 1010.57 1010.65 1010.72 1010.78 1010.83 1010.88 1010.93 1010.97 1011.01 1011.03 1011.03 1011.01 1010.96 1010.88 1010.77 1010.62 1010.45 1010.25 1010.02 1009.78
1011.99 1011.65 1011.34 1011.05 1010.80 1010.57 1010.36 1010.19 1010.04 1009.93 1009.84 1009.80 1009.78 1009.81 1009.86 1009.95 1010.05 1010.15 1010.26 1010.36 1010.43 1010.49 1010.52 1010.53 1010.54 1010.54 1010.54 1010.56 1010.60 1010.66 1010.74 1010.82 1010.89 1010.95 1010.98 1010.97 1010.91 1010.79 1010.62 1010.40 1010.14 1009.84 1009.52
1011.98 1011.71 1011.49 1011.29 1011.13 1011.00 1010.89 1010.79 1010.70 1010.62 1010.56 1010.50 1010.46 1010.45 1010.45 1010.47 1010.50 1010.53 1010.56 1010.57 1010.56 1010.53 1010.48 1010.42 1010.36 1010.32 1010.30 1010.32 1010.37 1010.47 1010.59 1010.73 1010.86 1010.97 1011.03 1011.03 1010.97 1010.83 1010.61 1010.34 1010.01 1009.64 1009.25
1011.92 1011.72 1011.57 1011.46 1011.38 1011.33 1011.29 1011.26 1011.22 1011.17 1011.11 1011.05 1010.99 1010.94 1010.89 1010.84 1010.80 1010.75 1010.69 1010.61 1010.51 1010.40 1010.28 1010.16 1010.07 1010.01 1009.99 1010.03 1010.13 1010.28 1010.46 1010.65 1010.83 1010.97 1011.05 1011.05 1010.96 1010.78 1010.51 1010.17 1009.78 1009.35 1008.90
1011.82 1011.68 1011.58 1011.53 1011.52 1011.52 1011.53 1011.53 1011.52 1011.49 1011.45 1011.38 1011.30 1011.21 1011.12 1011.01 1010.89 1010.76 1010.61 1010.45 1010.26 1010.08 1009.89 1009.74 1009.63 1009.57 1009.58 1009.66 1009.82 1010.02 1010.26 1010.50 1010.72 1010.87 1010.94 1010.92 1010.79 1010.56 1010.23 1009.84 1009.40 1008.93 1008.45
1011.73 1011.61 1011.54 1011.52 1011.53 1011.55 1011.58 1011.60 1011.60 1011.58 1011.54 1011.47 1011.37 1011.26 1011.13 1010.97 1010.79 1010.58 1010.36 1010.11 1009.85 1009.60 1009.37 1009.18 1009.06 1009.01 1009.05 1009.18 1009.39 1009.65 1009.93 1010.20 1010.43 1010.58 1010.63 1010.57 1010.39 1010.12 1009.75 1009.32 1008.86 1008.38 1007.91
Thickness
5811 5811 5810 5809 5806 5803 5800 5799 5797 5796 5795 5792 5789 5787 5786 5787 5787 5787 5786 5785 5783 5782 5780 5778 5775 5773 5771 5769 5768 5766 5763 5761 5760 5756 5753 5755 5758 5757 5756 5755 5754 5752 5750
5808 5810 5810 5809 5806 5803 5801 5799 5797 5796 5795 5793 5792 5790 5788 5787 5787 5786 5785 5784 5783 5782 5780 5777 5774 5772 5770 5768 5767 5765 5761 5760 5759 5753 5748 5744 5747 5751 5755 5754 5752 5751 5750
5810 5811 5810 5809 5807 5805 5803 5802 5799 5797 5796 5795 5793 5790 5788 5786 5784 5783 5783 5783 5783 5782 5780 5778 5775 5772 5770 5767 5766 5765 5761 5757 5757 5756 5749 5741 5737 5742 5748 5751 5751 5750 5748
5816 5813 5812 5810 5809 5808 5806 5803 5801 5798 5797 5795 5791 5787 5783 5779 5780 5781 5781 5782 5782 5780 5779 5777 5775 5772 5770 5768 5766 5765 5762 5758 5754 5754 5754 5750 5746 5739 5737 5744 5747 5747 5746
5819 5817 5816 5814 5812 5811 5807 5805 5801 5799 5797 5794 5791 5787 5784 5782 5782 5781 5779 5779 5779 5779 5778 5776 5774 5772 5770 5768 5766 5764 5762 5759 5755 5752 5751 5749 5746 5743 5736 5733 5738 5741 5743
5823 5821 5820 5817 5813 5812 5809 5805 5801 5798 5797 5794 5791 5788 5784 5782 5780 5779 5777 5777 5777 5777 5776 5775 5773 5771 5768 5766 5765 5763 5761 5759 5756 5753 5751 5747 5743 5739 5736 5732 5731 5732 5737
5824 5821 5818 5816 5813 5811 5809 5806 5802 5797 5797 5794 5791 5789 5786 5783 5780 5778 5776 5774 5774 5773 5774 5773 5771 5769 5767 5766 5764 5762 5760 5758 5755 5753 5750 5748 5745 5743 5739 5733 5730 5728 5732
5826 5823 5821 5818 5815 5812 5809 5805 5802 5798 5796 5794 5791 5789 5787 5784 5781 5779 5777 5775 5774 5773 5773 5772 5770 5769 5767 5765 5763 5761 5758 5757 5754 5753 5750 5747 5745 5743 5740 5735 5729 5724 5725
5826 5825 5823 5820 5816 5813 5811 5808 5804 5800 5797 5794 5791 5788 5786 5784 5781 5780 5778 5776 5774 5773 5772 5770 5768 5767 5765 5764 5761 5758 5756 5754 5752 5751 5749 5746 5744 5742 5740 5737 5733 5725 5718
5826 5825 5823 5821 5818 5816 5813 5810 5806 5801 5798 5795 5791 5789 5786 5784 5781 5779 5777 5775 5773 5772 5770 5768 5767 5765 5763 5761 5758 5755 5754 5751 5749 5748 5746 5743 5742 5740 5738 5736 5733 5729 5723
5825 5825 5823 5822 5819 5816 5812 5808 5804 5800 5797 5794 5791 5788 5786 5783 5781 5778 5776 5774 5772 5770 5768 5766 5764 5762 5760 5758 5756 5753 5751 5748 5746 5745 5743 5741 5739 5737 5735 5734 5731 5728 5725
5826 5826 5823 5820 5817 5813 5810 5806 5803 5799 5796 5793 5790 5787 5785 5782 5779 5777 5775 5774 5771 5769 5767 5765 5762 5760 5757 5755 5753 5750 5749 5746 5743 5741 5740 5738 5737 5733 5731 5730 5727 5725 5724
5822 5822 5820 5817 5815 5812 5809 5805 5802 5799 5796 5792 5788 5784 5782 5780 5777 5776 5774 5772 5769 5766 5764 5762 5759 5757 5755 5752 5750 5748 5746 5744 5742 5740 5737 5735 5733 5730 5728 5726 5724 5722 5721
5816 5815 5814 5812 5812 5809 5806 5803 5801 5798 5794 5790 5785 5781 5779 5778 5776 5774 5772 5769 5766 5763 5761 5759 5757 5754 5752 5750 5747 5745 5742 5740 5739 5737 5735 5733 5730 5728 5725 5723 5720 5718 5715
5809 5808 5808 5807 5806 5804 5802 5801 5798 5795 5791 5786 5781 5779 5778 5776 5773 5771 5768 5765 5763 5761 5759 5756 5753 5751 5748 5746 5743 5741 5739 5736 5734 5733 5732 5730 5729 5727 5724 5721 5717 5714 5710
5802 5803 5802 5801 5800 5800 5798 5796 5793 5791 5787 5782 5778 5776 5773 5771 5769 5766 5764 5762 5759 5757 5755 5752 5749 5746 5745 5743 5741 5738 5734 5732 5729 5727 5726 5726 5724 5723 5721 5719 5716 5713 5708
5796 5795 5795 5794 5794 5794 5794 5792 5790 5787 5782 5777 5774 5772 5769 5765 5763 5762 5759 5757 5754 5752 5749 5747 5744 5742 5740 5739 5736 5733 5730 5727 5725 5723 5721 5721 5720 5717 5715 5713 5711 5709 5707
5789 5788 5789 5788 5789 5790 5789 5788 5785 5781 5776 5772 5769 5767 5764 5760 5758 5756 5753 5751 5750 5747 5744 5742 5740 5737 5735 5734 5731 5728 5724 5721 5720 5719 5717 5715 5713 5712 5709 5706 5704 5703 5702
5781 5781 5783 5783 5782 5782 5782 5780 5776 5773 5770 5767 5764 5762 5759 5755 5752 5749 5748 5746 5744 5742 5740 5738 5734 5731 5730 5729 5726 5722 5719 5716 5714 5713 5713 5711 5708 5708 5705 5701 5698 5696 5696
5774 5775 5776 5775 5773 5773 5774 5771 5767 5765 5762 5761 5759 5757 5754 5751 5747 5744 5742 5741 5738 5735 5732 5730 5729 5727 5725 5724 5721 5716 5713 5709 5708 5708 5708 5706 5704 5702 5699 5695 5693 5690 5690
5765 5765 5765 5763 5762 5762 5762 5758 5756 5755 5756 5755 5753 5751 5748 5745 5743 5739 5737 5734 5731 5728 5725 5724 5723 5722 5720 5718 5716 5711 5707 5705 5703 5701 5701 5701 5699 5696 5694 5691 5689 5688 5686
5753 5754 5753 5751 5752 5752 5749 5746 5745 5748 5748 5747 5744 5742 5740 5738 5737 5732 5729 5727 5723 5719 5718 5716 5715 5715 5714 5712 5710 5706 5703 5701 5697 5696 5695 5694 5693 5690 5688 5686 5685 5683 5680
5741 5742 5741 5740 5741 5740 5739 5734 5735 5737 5737 5736 5734 5733 5732 5730 5728 5725 5721 5718 5716 5712 5710 5709 5707 5707 5706 5705 5703 5700 5697 5695 5692 5691 5690 5688 5686 5684 5682 5681 5679 5676 5673
5729 5729 5728 5726 5726 5727 5728 5727 5727 5728 5726 5724 5724 5724 5722 5721 5719 5717 5714 5711 5708 5705 5703 5701 5700 5698 5697 5696 5694 5692 5689 5687 5684 5683 5682 5680 5679 5677 5676 5674 5672 5669 5667
5717 5717 5715 5714 5715 5717 5717 5717 5717 5717 5714 5713 5713 5713 5713 5711 5709 5707 5706 5704 5703 5701 5697 5696 5693 5690 5689 5689 5686 5683 5682 5680 5678 5675 5672 5670 5669 5668 5667 5665 5664 5663 5661
5704 5704 5704 5703 5704 5705 5706 5706 5707 5705 5703 5701 5701 5701 5701 5701 5699 5697 5695 5695 5694 5694 5692 5691 5688 5687 5685 5682 5680 5677 5676 5674 5671 5667 5664 5662 5661 5660 5660 5658 5657 5656 5655